Location: Parc des �les de St-Timoth�e
(45.2924°N, 74.0481°W)
Time: 15:31:37
(UTC-05:00)

ISS - All Passes

Search period start: 12 February 2016 00:00
Search period end: 22 February 2016 00:00
Orbit: 399 x 407 km, 51.6° (Epoch: 12 February)

Date Brightness Start Highest point End Pass type
(mag) Time Alt. Az. Time Alt. Az. Time Alt. Az.
12 Feb - 13:44:41 10° SSE 13:45:56 12° SE 13:47:10 10° ESE daylight
12 Feb - 15:18:38 10° SW 15:21:53 79° SSE 15:25:08 10° ENE daylight
12 Feb - 16:55:39 10° WNW 16:58:35 30° NNW 17:01:30 10° NE daylight
12 Feb - 18:32:47 10° NW 18:35:38 27° N 18:38:29 10° ENE visible
12 Feb - 20:09:11 10° WNW 20:12:27 75° NNE 20:15:41 10° ESE visible
12 Feb - 21:46:21 10° W 21:48:32 17° SW 21:50:45 10° S night (unlit)
13 Feb - 14:26:08 10° SW 14:29:15 44° SE 14:32:22 10° ENE daylight
13 Feb - 16:02:39 10° W 16:05:45 38° NNW 16:08:49 10° NE daylight
13 Feb - 17:39:58 10° WNW 17:42:45 25° N 17:45:32 10° ENE daylight
13 Feb - 19:16:31 10° NW 19:19:41 48° NNE 19:22:51 10° E visible
13 Feb - 20:53:08 10° WNW 20:56:02 30° SW 20:58:55 10° SSE visible
14 Feb - 13:33:57 10° SSW 13:36:40 25° SE 13:39:24 10° E daylight
14 Feb - 15:09:44 10° WSW 15:12:56 55° NNW 15:16:09 10° NE daylight
14 Feb - 16:47:02 10° WNW 16:49:50 26° N 16:52:38 10° NE daylight
14 Feb - 18:23:50 10° NW 18:26:52 35° NNE 18:29:53 10° E visible
14 Feb - 20:00:15 10° WNW 20:03:26 54° SW 20:06:36 10° SE visible
15 Feb - 12:42:21 10° SSE 12:44:10 14° SE 12:45:58 10° E daylight
15 Feb - 14:16:55 10° WSW 14:20:11 89° NNW 14:23:27 10° ENE daylight
15 Feb - 15:54:02 10° WNW 15:56:56 29° N 15:59:50 10° NE daylight
15 Feb - 17:31:05 10° NW 17:33:59 28° N 17:36:52 10° ENE daylight
15 Feb - 19:07:29 10° WNW 19:10:44 87° NNE 19:13:58 10° ESE visible
15 Feb - 20:44:56 10° W 20:46:46 14° SW 20:48:37 10° SSW visible
16 Feb - 13:24:19 10° SW 13:27:29 52° SE 13:30:41 10° ENE daylight
16 Feb - 15:01:00 10° W 15:04:02 35° NNW 15:07:05 10° NE daylight
16 Feb - 16:38:16 10° NW 16:41:04 26° N 16:43:52 10° ENE daylight
16 Feb - 18:14:46 10° NW 18:17:58 54° NNE 18:21:10 10° ESE visible
16 Feb - 19:51:31 10° W 19:54:14 25° SW 19:56:58 10° SSE visible
17 Feb - 12:31:58 10° SSW 12:34:51 29° SE 12:37:44 10° ENE daylight
17 Feb - 14:08:00 10° W 14:11:11 49° NNW 14:14:22 10° NE daylight
17 Feb - 15:45:20 10° WNW 15:48:07 25° N 15:50:55 10° ENE daylight
17 Feb - 17:22:03 10° NW 17:25:07 38° NNE 17:28:12 10° E daylight
17 Feb - 18:58:30 10° WNW 19:01:37 45° SW 19:04:43 10° SE visible
18 Feb - 11:40:06 10° S 11:42:16 17° SE 11:44:27 10° E daylight
18 Feb - 13:15:07 10° WSW 13:18:22 77° NNW 13:21:39 10° ENE daylight
18 Feb - 14:52:18 10° WNW 14:55:10 28° N 14:58:02 10° NE daylight
18 Feb - 16:29:17 10° NW 16:32:13 30° NNE 16:35:09 10° ENE daylight
18 Feb - 18:05:40 10° WNW 18:08:55 81° SSW 18:12:09 10° SE visible
18 Feb - 19:43:33 10° WSW 19:44:52 12° SW 19:46:12 10° SSW visible
19 Feb - 12:22:23 10° SW 12:25:37 63° SSE 12:28:50 10° ENE daylight
19 Feb - 13:59:14 10° W 14:02:14 33° NNW 14:05:14 10° NE daylight
19 Feb - 15:36:27 10° NW 15:39:16 26° N 15:42:05 10° ENE daylight
19 Feb - 17:12:54 10° WNW 17:16:08 62° NNE 17:19:20 10° ESE daylight
19 Feb - 18:49:47 10° W 18:52:19 21° SW 18:54:52 10° S visible
20 Feb - 11:29:55 10° SSW 11:32:55 35° SE 11:35:56 10° ENE daylight
20 Feb - 13:06:10 10° W 13:09:19 44° NNW 13:12:28 10° NE daylight
20 Feb - 14:43:30 10° WNW 14:46:17 25° N 14:49:04 10° ENE daylight
20 Feb - 16:20:08 10° NW 16:23:16 41° NNE 16:26:22 10° E daylight
20 Feb - 17:56:39 10° WNW 17:59:41 38° SW 18:02:43 10° SSE visible
21 Feb - 10:37:50 10° S 10:40:17 20° SE 10:42:44 10° E daylight
21 Feb - 12:13:12 10° WSW 12:16:27 67° NNW 12:19:42 10° ENE daylight
21 Feb - 13:50:27 10° WNW 13:53:18 27° N 13:56:08 10° NE daylight
21 Feb - 15:27:21 10° NW 15:30:19 32° NNE 15:33:18 10° E daylight
21 Feb - 17:03:44 10° WNW 17:06:58 69° SSW 17:10:11 10° SE daylight
